, AZ

(GMT )
Fort Huachuca

Weather History for KALK - August, 2013

Change the Weather History Date:

Monday, August 19, 2013

  Actual Average Record
Temperature  
Mean Temperature 79 °F -  
Max Temperature 88 °F - - ()
Min Temperature 70 °F - - ()
Cooling Degree Days 14    
Growing Degree Days 29 (Base 50)    
Moisture  
Dew Point 52 °F    
Average Humidity 43    
Maximum Humidity 55    
Minimum Humidity 26    
Precipitation  
Precipitation 0.00 in - - ()
Sea Level Pressure  
Sea Level Pressure 29.88 in    
Wind  
Wind Speed 7 mph (SW)    
Max Wind Speed 10 mph    
Max Gust Speed -    
Averages and records for this station are not official NWS values.
T = Trace of Precipitation, MM = Missing Value Source: NWS Daily Summary

Daily Weather History Graph

Daily Weather History Graph

Search for Another Location

Airport or City:

Trip Planner

Search our weather history database for the weather conditions in past years. The results will help you decide how hot, cold, wet, or windy it might be!

Date:

Astronomy

Aug. 19, 2013 Rise Set
Actual Time 5:49 AM MST 7:00 PM MST
Civil Twilight 5:24 AM MST 7:25 PM MST
Nautical Twilight 4:53 AM MST 7:55 PM MST
Astronomical Twilight 4:22 AM MST 8:26 PM MST
Moon 5:54 PM MST (8/19) 4:14 AM MST (8/19)
Length of Visible Light 14h 01m
Length of Day
13h 10m
Waxing Gibbous, 98% of the Moon is Illuminated
Aug 19
Waxing Gibbous
Aug 20
Full
Aug 28
Last Quarter
Sep 5
New
Sep 12
First Quarter

Hourly Weather History & Observations

Time (MST) Temp. Heat Index Dew Point Humidity Pressure Visibility Wind Dir Wind Speed Gust Speed Precip Events Conditions
12:56 AM 71.1 °F - 54.0 °F 55% 29.89 in - SW 10.4 mph - N/A   Clear
1:56 AM 71.1 °F - 54.0 °F 55% 29.89 in - SW 9.2 mph - N/A   Clear
2:56 AM 70.0 °F - 53.1 °F 55% 29.88 in - South 4.6 mph - N/A   Clear
3:56 AM 70.0 °F - 53.1 °F 55% 29.89 in - Calm Calm - N/A   Clear
4:56 AM 70.0 °F - 53.1 °F 55% 29.90 in - Calm Calm - N/A   Clear
5:56 AM 71.1 °F - 52.0 °F 51% 29.91 in - ESE 4.6 mph - N/A   Partly Cloudy
6:56 AM 73.0 °F - 52.0 °F 48% 29.92 in - SE 4.6 mph - N/A   Clear
7:56 AM 79.0 °F - 53.1 °F 40% 29.92 in - East 4.6 mph - N/A   Clear
8:56 AM 82.0 °F 81.2 °F 53.1 °F 37% 29.92 in - NE 5.8 mph - N/A   Clear
9:56 AM 84.0 °F 82.9 °F 55.0 °F 37% 29.91 in - NE 6.9 mph - N/A   Clear
10:56 AM 87.1 °F - 50.0 °F 28% 29.91 in - Variable 5.8 mph - N/A   Clear
12:56 PM 82.0 °F - 52.0 °F 35% 29.89 in - South 9.2 mph - 0.00 in   Mostly Cloudy
1:56 PM 81.0 °F - 52.0 °F 36% 29.88 in - South 3.5 mph - 0.00 in   Mostly Cloudy
2:56 PM 84.9 °F - 48.0 °F 28% 29.84 in - West 5.8 mph - 0.00 in   Clear
3:56 PM 88.0 °F - 48.9 °F 26% 29.83 in - West 10.4 mph - N/A   Clear
4:56 PM 87.1 °F - 48.9 °F 27% 29.81 in - West 10.4 mph - N/A   Clear
5:56 PM 82.0 °F 81.3 °F 54.0 °F 38% 29.82 in - SW 5.8 mph - N/A   Clear
6:56 PM 78.1 °F - 53.1 °F 42% 29.81 in - SSW 6.9 mph - N/A   Clear
8:56 PM 78.1 °F - 51.1 °F 39% 29.85 in - SW 8.1 mph - N/A   Partly Cloudy
9:56 PM 73.0 °F - 54.0 °F 51% 29.86 in - West 9.2 mph - N/A   Clear
10:56 PM 72.0 °F - 55.0 °F 55% 29.86 in - WSW 6.9 mph - N/A   Clear
11:56 PM - - - N/A% - - West 6.9 mph - N/A   Mostly Cloudy